Year,Month,Day,Hour,Minute,Value (Times are PST for temperature in C)
2012,07,11,00,00,15.90
2012,07,11,00,01,15.90
2012,07,11,00,02,15.90
2012,07,11,00,03,15.90
2012,07,11,00,04,15.90
2012,07,11,00,05,15.90
2012,07,11,00,06,15.90
2012,07,11,00,07,15.90
2012,07,11,00,08,15.90
2012,07,11,00,09,15.90
2012,07,11,00,10,15.90
2012,07,11,00,11,15.90
2012,07,11,00,12,15.90
2012,07,11,00,13,15.90
2012,07,11,00,14,15.80
2012,07,11,00,15,15.80
2012,07,11,00,16,15.80
2012,07,11,00,17,15.80
2012,07,11,00,18,15.80
2012,07,11,00,19,15.70
2012,07,11,00,20,15.70
2012,07,11,00,21,15.70
2012,07,11,00,22,15.70
2012,07,11,00,23,15.60
2012,07,11,00,24,15.60
2012,07,11,00,25,15.60
2012,07,11,00,26,15.60
2012,07,11,00,27,15.50
2012,07,11,00,28,15.50
2012,07,11,00,29,15.50
2012,07,11,00,30,15.40
2012,07,11,00,31,15.40
2012,07,11,00,32,15.40
2012,07,11,00,33,15.40
2012,07,11,00,34,15.30
2012,07,11,00,35,15.30
2012,07,11,00,36,15.30
2012,07,11,00,37,15.30
2012,07,11,00,38,15.30
2012,07,11,00,39,15.30
2012,07,11,00,40,15.30
2012,07,11,00,41,15.30
2012,07,11,00,42,15.30
2012,07,11,00,43,15.30
2012,07,11,00,44,15.30
2012,07,11,00,45,15.20
2012,07,11,00,46,15.20
2012,07,11,00,47,15.20
2012,07,11,00,48,15.20
2012,07,11,00,49,15.20
2012,07,11,00,50,15.20
2012,07,11,00,51,15.20
2012,07,11,00,52,15.20
2012,07,11,00,53,15.20
2012,07,11,00,54,15.20
2012,07,11,00,55,15.20
2012,07,11,00,56,15.10
2012,07,11,00,57,15.10
2012,07,11,00,58,15.10
2012,07,11,00,59,15.00
2012,07,11,01,00,15.00
2012,07,11,01,01,15.00
2012,07,11,01,02,15.00
2012,07,11,01,03,15.00
2012,07,11,01,04,15.00
2012,07,11,01,05,15.00
2012,07,11,01,06,15.00
2012,07,11,01,07,15.00
2012,07,11,01,08,15.00
2012,07,11,01,09,15.00
2012,07,11,01,10,15.00
2012,07,11,01,11,15.00
2012,07,11,01,12,15.00
2012,07,11,01,13,15.00
2012,07,11,01,14,15.00
2012,07,11,01,15,15.00
2012,07,11,01,16,15.00
2012,07,11,01,17,14.90
2012,07,11,01,18,14.90
2012,07,11,01,19,14.90
2012,07,11,01,20,14.90
2012,07,11,01,21,14.90
2012,07,11,01,22,14.90
2012,07,11,01,23,14.80
2012,07,11,01,24,14.80
2012,07,11,01,25,14.80
2012,07,11,01,26,14.80
2012,07,11,01,27,14.80
2012,07,11,01,28,14.80
2012,07,11,01,29,14.70
2012,07,11,01,30,14.70
2012,07,11,01,31,14.70
2012,07,11,01,32,14.70
2012,07,11,01,33,14.60
2012,07,11,01,34,14.60
2012,07,11,01,35,14.60
2012,07,11,01,36,14.60
2012,07,11,01,37,14.60
2012,07,11,01,38,14.60
2012,07,11,01,39,14.60
2012,07,11,01,40,14.50
2012,07,11,01,41,14.50
2012,07,11,01,42,14.50
2012,07,11,01,43,14.50
2012,07,11,01,44,14.40
2012,07,11,01,45,14.40
2012,07,11,01,46,14.40
2012,07,11,01,47,14.40
2012,07,11,01,48,14.40
2012,07,11,01,49,14.40
2012,07,11,01,50,14.30
2012,07,11,01,51,14.30
2012,07,11,01,52,14.30
2012,07,11,01,53,14.30
2012,07,11,01,54,14.30
2012,07,11,01,55,14.30
2012,07,11,01,56,14.30
2012,07,11,01,57,14.30
2012,07,11,01,58,14.30
2012,07,11,01,59,14.30
2012,07,11,02,00,14.30
2012,07,11,02,01,14.30
2012,07,11,02,02,14.30
2012,07,11,02,03,14.30
2012,07,11,02,04,14.30
2012,07,11,02,05,14.30
2012,07,11,02,06,14.40
2012,07,11,02,07,14.40
2012,07,11,02,08,14.30
2012,07,11,02,09,14.30
2012,07,11,02,10,14.30
2012,07,11,02,11,14.30
2012,07,11,02,12,14.30
2012,07,11,02,13,14.30
2012,07,11,02,14,14.30
2012,07,11,02,15,14.20
2012,07,11,02,16,14.20
2012,07,11,02,17,14.20
2012,07,11,02,18,14.20
2012,07,11,02,19,14.10
2012,07,11,02,20,14.10
2012,07,11,02,21,14.10
2012,07,11,02,22,14.10
2012,07,11,02,23,14.10
2012,07,11,02,24,14.10
2012,07,11,02,25,14.00
2012,07,11,02,26,14.00
2012,07,11,02,27,14.00
2012,07,11,02,28,13.90
2012,07,11,02,29,13.90
2012,07,11,02,30,13.90
2012,07,11,02,31,13.90
2012,07,11,02,32,13.90
2012,07,11,02,33,13.90
2012,07,11,02,34,13.90
2012,07,11,02,35,13.90
2012,07,11,02,36,13.90
2012,07,11,02,37,13.90
2012,07,11,02,38,13.90
2012,07,11,02,39,13.90
2012,07,11,02,40,13.90
2012,07,11,02,41,13.90
2012,07,11,02,42,13.90
2012,07,11,02,43,13.90
2012,07,11,02,44,13.90
2012,07,11,02,45,13.90
2012,07,11,02,46,13.90
2012,07,11,02,47,13.90
2012,07,11,02,48,13.90
2012,07,11,02,49,13.90
2012,07,11,02,50,13.90
2012,07,11,02,51,13.90
2012,07,11,02,52,13.90
2012,07,11,02,53,13.90
2012,07,11,02,54,13.80
2012,07,11,02,55,13.80
2012,07,11,02,56,13.80
2012,07,11,02,57,13.80
2012,07,11,02,58,13.80
2012,07,11,02,59,13.70
2012,07,11,03,00,13.70
2012,07,11,03,01,13.70
2012,07,11,03,02,13.70
2012,07,11,03,03,13.70
2012,07,11,03,04,13.70
2012,07,11,03,05,13.70
2012,07,11,03,06,13.60
2012,07,11,03,07,13.60
2012,07,11,03,08,13.60
2012,07,11,03,09,13.60
2012,07,11,03,10,13.60
2012,07,11,03,11,13.60
2012,07,11,03,12,13.60
2012,07,11,03,13,13.50
2012,07,11,03,14,13.50
2012,07,11,03,15,13.50
2012,07,11,03,16,13.40
2012,07,11,03,17,13.40
2012,07,11,03,18,13.40
2012,07,11,03,19,13.40
2012,07,11,03,20,13.30
2012,07,11,03,21,13.30
2012,07,11,03,22,13.30
2012,07,11,03,23,13.30
2012,07,11,03,24,13.30
2012,07,11,03,25,13.20
2012,07,11,03,26,13.20
2012,07,11,03,27,13.20
2012,07,11,03,28,13.20
2012,07,11,03,29,13.20
2012,07,11,03,30,13.20
2012,07,11,03,31,13.20
2012,07,11,03,32,13.20
2012,07,11,03,33,13.30
2012,07,11,03,34,13.30
2012,07,11,03,35,13.30
2012,07,11,03,36,13.40
2012,07,11,03,37,13.40
2012,07,11,03,38,13.40
2012,07,11,03,39,13.40
2012,07,11,03,40,13.40
2012,07,11,03,41,13.50
2012,07,11,03,42,13.50
2012,07,11,03,43,13.50
2012,07,11,03,44,13.50
2012,07,11,03,45,13.50
2012,07,11,03,46,13.50
2012,07,11,03,47,13.50
2012,07,11,03,48,13.60
2012,07,11,03,49,13.60
2012,07,11,03,50,13.60
2012,07,11,03,51,13.60
2012,07,11,03,52,13.60
2012,07,11,03,53,13.60
2012,07,11,03,54,13.60
2012,07,11,03,55,13.60
2012,07,11,03,56,13.70
2012,07,11,03,57,13.70
2012,07,11,03,58,13.70
2012,07,11,03,59,13.70
2012,07,11,04,00,13.70
2012,07,11,04,01,13.70
2012,07,11,04,02,13.70
2012,07,11,04,03,13.70
2012,07,11,04,04,13.70
2012,07,11,04,05,13.70
2012,07,11,04,06,13.80
2012,07,11,04,07,13.80
2012,07,11,04,08,13.80
2012,07,11,04,09,13.80
2012,07,11,04,10,13.80
2012,07,11,04,11,13.70
2012,07,11,04,12,13.70
2012,07,11,04,13,13.70
2012,07,11,04,14,13.70
2012,07,11,04,15,13.70
2012,07,11,04,16,13.60
2012,07,11,04,17,13.60
2012,07,11,04,18,13.60
2012,07,11,04,19,13.50
2012,07,11,04,20,13.50
2012,07,11,04,21,13.50
2012,07,11,04,22,13.40
2012,07,11,04,23,13.40
2012,07,11,04,24,13.30
2012,07,11,04,25,13.30
2012,07,11,04,26,13.30
2012,07,11,04,27,13.30
2012,07,11,04,28,13.30
2012,07,11,04,29,13.20
2012,07,11,04,30,13.20
2012,07,11,04,31,13.20
2012,07,11,04,32,13.20
2012,07,11,04,33,13.20
2012,07,11,04,34,13.10
2012,07,11,04,35,13.10
2012,07,11,04,36,13.10
2012,07,11,04,37,13.10
2012,07,11,04,38,13.10
2012,07,11,04,39,13.10
2012,07,11,04,40,13.10
2012,07,11,04,41,13.10
2012,07,11,04,42,13.10
2012,07,11,04,43,13.10
2012,07,11,04,44,13.10
2012,07,11,04,45,13.10
2012,07,11,04,46,13.10
2012,07,11,04,47,13.10
2012,07,11,04,48,13.10
2012,07,11,04,49,13.10
2012,07,11,04,50,13.10
2012,07,11,04,51,13.10
2012,07,11,04,52,13.10
2012,07,11,04,53,13.10
2012,07,11,04,54,13.10
2012,07,11,04,55,13.00
2012,07,11,04,56,13.00
2012,07,11,04,57,13.00
2012,07,11,04,58,12.90
2012,07,11,04,59,12.90
2012,07,11,05,00,12.90
2012,07,11,05,01,12.90
2012,07,11,05,02,12.90
2012,07,11,05,03,12.90
2012,07,11,05,04,12.90
2012,07,11,05,05,12.80
2012,07,11,05,06,12.80
2012,07,11,05,07,12.80
2012,07,11,05,08,12.80
2012,07,11,05,09,12.80
2012,07,11,05,10,12.70
2012,07,11,05,11,12.70
2012,07,11,05,12,12.70
2012,07,11,05,13,12.70
2012,07,11,05,14,12.70
2012,07,11,05,15,12.70
2012,07,11,05,16,12.60
2012,07,11,05,17,12.60
2012,07,11,05,18,12.60
2012,07,11,05,19,12.60
2012,07,11,05,20,12.60
2012,07,11,05,21,12.60
2012,07,11,05,22,12.60
2012,07,11,05,23,12.60
2012,07,11,05,24,12.60
2012,07,11,05,25,12.60
2012,07,11,05,26,12.60
2012,07,11,05,27,12.60
2012,07,11,05,28,12.60
2012,07,11,05,29,12.60
2012,07,11,05,30,12.60
2012,07,11,05,31,12.60
2012,07,11,05,32,12.60
2012,07,11,05,33,12.50
2012,07,11,05,34,12.50
2012,07,11,05,35,12.50
2012,07,11,05,36,12.50
2012,07,11,05,37,12.50
2012,07,11,05,38,12.50
2012,07,11,05,39,12.50
2012,07,11,05,40,12.40
2012,07,11,05,41,12.40
2012,07,11,05,42,12.40
2012,07,11,05,43,12.40
2012,07,11,05,44,12.40
2012,07,11,05,45,12.40
2012,07,11,05,46,12.40
2012,07,11,05,47,12.40
2012,07,11,05,48,12.30
2012,07,11,05,49,12.30
2012,07,11,05,50,12.30
2012,07,11,05,51,12.30
2012,07,11,05,52,12.30
2012,07,11,05,53,12.30
2012,07,11,05,54,12.30
2012,07,11,05,55,12.30
2012,07,11,05,56,12.40
2012,07,11,05,57,12.40
2012,07,11,05,58,12.40
2012,07,11,05,59,12.40
2012,07,11,06,00,12.40
2012,07,11,06,01,12.40
2012,07,11,06,02,12.50
2012,07,11,06,03,12.50
2012,07,11,06,04,12.50
2012,07,11,06,05,12.50
2012,07,11,06,06,12.50
2012,07,11,06,07,12.60
2012,07,11,06,08,12.60
2012,07,11,06,09,12.60
2012,07,11,06,10,12.60
2012,07,11,06,11,12.70
2012,07,11,06,12,12.70
2012,07,11,06,13,12.70
2012,07,11,06,14,12.70
2012,07,11,06,15,12.80
2012,07,11,06,16,12.80
2012,07,11,06,17,12.80
2012,07,11,06,18,12.90
2012,07,11,06,19,12.90
2012,07,11,06,20,12.90
2012,07,11,06,21,13.00
2012,07,11,06,22,13.00
2012,07,11,06,23,13.10
2012,07,11,06,24,13.10
2012,07,11,06,25,13.10
2012,07,11,06,26,13.10
2012,07,11,06,27,13.10
2012,07,11,06,28,13.10
2012,07,11,06,29,13.10
2012,07,11,06,30,13.10
2012,07,11,06,31,13.10
2012,07,11,06,32,13.10
2012,07,11,06,33,13.10
2012,07,11,06,34,13.20
2012,07,11,06,35,13.20
2012,07,11,06,36,13.20
2012,07,11,06,37,13.30
2012,07,11,06,38,13.30
2012,07,11,06,39,13.40
2012,07,11,06,40,13.50
2012,07,11,06,41,13.50
2012,07,11,06,42,13.60
2012,07,11,06,43,13.70
2012,07,11,06,44,13.70
2012,07,11,06,45,13.80
2012,07,11,06,46,13.80
2012,07,11,06,47,13.90
2012,07,11,06,48,13.90
2012,07,11,06,49,14.00
2012,07,11,06,50,14.10
2012,07,11,06,51,14.10
2012,07,11,06,52,14.20
2012,07,11,06,53,14.30
2012,07,11,06,54,14.30
2012,07,11,06,55,14.30
2012,07,11,06,56,14.30
2012,07,11,06,57,14.40
2012,07,11,06,58,14.40
2012,07,11,06,59,14.40
2012,07,11,07,00,14.40
2012,07,11,07,01,14.40
2012,07,11,07,02,14.50
2012,07,11,07,03,14.50
2012,07,11,07,04,14.50
2012,07,11,07,05,14.60
2012,07,11,07,06,14.60
2012,07,11,07,07,14.60
2012,07,11,07,08,14.60
2012,07,11,07,09,14.60
2012,07,11,07,10,14.70
2012,07,11,07,11,14.70
2012,07,11,07,12,14.70
2012,07,11,07,13,14.70
2012,07,11,07,14,14.70
2012,07,11,07,15,14.70
2012,07,11,07,16,14.80
2012,07,11,07,17,14.80
2012,07,11,07,18,14.80
2012,07,11,07,19,14.80
2012,07,11,07,20,14.80
2012,07,11,07,21,14.80
2012,07,11,07,22,14.80
2012,07,11,07,23,14.90
2012,07,11,07,24,14.90
2012,07,11,07,25,15.00
2012,07,11,07,26,15.00
2012,07,11,07,27,15.00
2012,07,11,07,28,15.00
2012,07,11,07,29,15.00
2012,07,11,07,30,15.00
2012,07,11,07,31,15.10
2012,07,11,07,32,15.20
2012,07,11,07,33,15.30
2012,07,11,07,34,15.30
2012,07,11,07,35,15.40
2012,07,11,07,36,15.50
2012,07,11,07,37,15.50
2012,07,11,07,38,15.60
2012,07,11,07,39,15.70
2012,07,11,07,40,15.70
2012,07,11,07,41,15.80
2012,07,11,07,42,15.80
2012,07,11,07,43,15.90
2012,07,11,07,44,15.90
2012,07,11,07,45,15.90
2012,07,11,07,46,16.00
2012,07,11,07,47,16.10
2012,07,11,07,48,16.10
2012,07,11,07,49,16.10
2012,07,11,07,50,16.10
2012,07,11,07,51,16.20
2012,07,11,07,52,16.20
2012,07,11,07,53,16.20
2012,07,11,07,54,16.30
2012,07,11,07,55,16.30
2012,07,11,07,56,16.30
2012,07,11,07,57,16.40
2012,07,11,07,58,16.40
2012,07,11,07,59,16.50
2012,07,11,08,00,16.60
2012,07,11,08,01,16.60
2012,07,11,08,02,16.70
2012,07,11,08,03,16.80
2012,07,11,08,04,16.90
2012,07,11,08,05,17.00
2012,07,11,08,06,17.00
2012,07,11,08,07,17.10
2012,07,11,08,08,17.20
2012,07,11,08,09,17.20
2012,07,11,08,10,17.30
2012,07,11,08,11,17.30
2012,07,11,08,12,17.30
2012,07,11,08,13,17.30
2012,07,11,08,14,17.30
2012,07,11,08,15,17.30
2012,07,11,08,16,17.30
2012,07,11,08,17,17.30
2012,07,11,08,18,17.30
2012,07,11,08,19,17.30
2012,07,11,08,20,17.30
2012,07,11,08,21,17.30
2012,07,11,08,22,17.30
2012,07,11,08,23,17.30
2012,07,11,08,24,17.30
2012,07,11,08,25,17.30
2012,07,11,08,26,17.30
2012,07,11,08,27,17.20
2012,07,11,08,28,17.20
2012,07,11,08,29,17.10
2012,07,11,08,30,17.10
2012,07,11,08,31,17.10
2012,07,11,08,32,17.10
2012,07,11,08,33,17.10
2012,07,11,08,34,17.10
2012,07,11,08,35,17.20
2012,07,11,08,36,17.20
2012,07,11,08,37,17.20
2012,07,11,08,38,17.20
2012,07,11,08,39,17.30
2012,07,11,08,40,17.30
2012,07,11,08,41,17.30
2012,07,11,08,42,17.40
2012,07,11,08,43,17.40
2012,07,11,08,44,17.40
2012,07,11,08,45,17.30
2012,07,11,08,46,17.30
2012,07,11,08,47,17.30
2012,07,11,08,48,17.30
2012,07,11,08,49,17.30
2012,07,11,08,50,17.30
2012,07,11,08,51,17.30
2012,07,11,08,52,17.30
2012,07,11,08,53,17.40
2012,07,11,08,54,17.40
2012,07,11,08,55,17.30
2012,07,11,08,56,17.30
2012,07,11,08,57,17.30
2012,07,11,08,58,17.20
2012,07,11,08,59,17.10
2012,07,11,09,00,17.10
2012,07,11,09,01,17.10
2012,07,11,09,02,17.10
2012,07,11,09,03,17.10
2012,07,11,09,04,17.10
2012,07,11,09,05,17.20
2012,07,11,09,06,17.20
2012,07,11,09,07,17.30
2012,07,11,09,08,17.30
2012,07,11,09,09,17.40
2012,07,11,09,10,17.40
2012,07,11,09,11,17.50
2012,07,11,09,12,17.60
2012,07,11,09,13,17.60
2012,07,11,09,14,17.70
2012,07,11,09,15,17.70
2012,07,11,09,16,17.80
2012,07,11,09,17,17.80
2012,07,11,09,18,17.80
2012,07,11,09,19,17.90
2012,07,11,09,20,17.90
2012,07,11,09,21,17.90
2012,07,11,09,22,17.90
2012,07,11,09,23,17.90
2012,07,11,09,24,17.90
2012,07,11,09,25,18.00
2012,07,11,09,26,17.90
2012,07,11,09,27,17.80
2012,07,11,09,28,17.80
2012,07,11,09,29,17.70
2012,07,11,09,30,17.70
2012,07,11,09,31,17.70
2012,07,11,09,32,17.70
2012,07,11,09,33,17.70
2012,07,11,09,34,17.70
2012,07,11,09,35,17.70
2012,07,11,09,36,17.70
2012,07,11,09,37,17.70
2012,07,11,09,38,17.70
2012,07,11,09,39,17.70
2012,07,11,09,40,17.80
2012,07,11,09,41,17.80
2012,07,11,09,42,17.80
2012,07,11,09,43,17.80
2012,07,11,09,44,17.70
2012,07,11,09,45,17.60
2012,07,11,09,46,17.60
2012,07,11,09,47,17.60
2012,07,11,09,48,17.60
2012,07,11,09,49,17.60
2012,07,11,09,50,17.50
2012,07,11,09,51,17.50
2012,07,11,09,52,17.40
2012,07,11,09,53,17.40
2012,07,11,09,54,17.30
2012,07,11,09,55,17.30
2012,07,11,09,56,17.30
2012,07,11,09,57,17.30
2012,07,11,09,58,17.30
2012,07,11,09,59,17.40
2012,07,11,10,00,17.30
2012,07,11,10,01,17.30
2012,07,11,10,02,17.30
2012,07,11,10,03,17.30
2012,07,11,10,04,17.30
2012,07,11,10,05,17.20
2012,07,11,10,06,17.20
2012,07,11,10,07,17.20
2012,07,11,10,08,17.20
2012,07,11,10,09,17.20
2012,07,11,10,10,17.20
2012,07,11,10,11,17.20
2012,07,11,10,12,17.20
2012,07,11,10,13,17.30
2012,07,11,10,14,17.30
2012,07,11,10,15,17.30
2012,07,11,10,16,17.30
2012,07,11,10,17,17.40
2012,07,11,10,18,17.40
2012,07,11,10,19,17.40
2012,07,11,10,20,17.40
2012,07,11,10,21,17.50
2012,07,11,10,22,17.60
2012,07,11,10,23,17.70
2012,07,11,10,24,17.70
2012,07,11,10,25,17.80
2012,07,11,10,26,17.80
2012,07,11,10,27,17.80
2012,07,11,10,28,17.80
2012,07,11,10,29,17.80
2012,07,11,10,30,17.80
2012,07,11,10,31,17.80
2012,07,11,10,32,17.80
2012,07,11,10,33,17.80
2012,07,11,10,34,17.80
2012,07,11,10,35,17.90
2012,07,11,10,36,18.00
2012,07,11,10,37,18.00
2012,07,11,10,38,18.10
2012,07,11,10,39,18.20
2012,07,11,10,40,18.30
2012,07,11,10,41,18.30
2012,07,11,10,42,18.40
2012,07,11,10,43,18.40
2012,07,11,10,44,18.50
2012,07,11,10,45,18.60
2012,07,11,10,46,18.70
2012,07,11,10,47,18.70
2012,07,11,10,48,18.80
2012,07,11,10,49,18.80
2012,07,11,10,50,18.80
2012,07,11,10,51,18.80
2012,07,11,10,52,18.80
2012,07,11,10,53,18.80
2012,07,11,10,54,18.80
2012,07,11,10,55,18.90
2012,07,11,10,56,18.90
2012,07,11,10,57,18.90
2012,07,11,10,58,19.00
2012,07,11,10,59,19.00
2012,07,11,11,00,19.00
2012,07,11,11,01,19.00
2012,07,11,11,02,19.10
2012,07,11,11,03,19.10
2012,07,11,11,04,19.10
2012,07,11,11,05,19.10
2012,07,11,11,06,19.10
2012,07,11,11,07,19.10
2012,07,11,11,08,19.20
2012,07,11,11,09,19.20
2012,07,11,11,10,19.20
2012,07,11,11,11,19.20
2012,07,11,11,12,19.10
2012,07,11,11,13,19.10
2012,07,11,11,14,19.10
2012,07,11,11,15,19.00
2012,07,11,11,16,19.00
2012,07,11,11,17,19.10
2012,07,11,11,18,19.10
2012,07,11,11,19,19.20
2012,07,11,11,20,19.20
2012,07,11,11,21,19.20
2012,07,11,11,22,19.30
2012,07,11,11,23,19.30
2012,07,11,11,24,19.40
2012,07,11,11,25,19.50
2012,07,11,11,26,19.50
2012,07,11,11,27,19.60
2012,07,11,11,28,19.60
2012,07,11,11,29,19.70
2012,07,11,11,30,19.70
2012,07,11,11,31,19.80
2012,07,11,11,32,19.70
2012,07,11,11,33,19.60
2012,07,11,11,34,19.50
2012,07,11,11,35,19.40
2012,07,11,11,36,19.40
2012,07,11,11,37,19.30
2012,07,11,11,38,19.40
2012,07,11,11,39,19.40
2012,07,11,11,40,19.40
2012,07,11,11,41,19.50
2012,07,11,11,42,19.50
2012,07,11,11,43,19.50
2012,07,11,11,44,19.60
2012,07,11,11,45,19.60
2012,07,11,11,46,19.70
2012,07,11,11,47,19.70
2012,07,11,11,48,19.70
2012,07,11,11,49,19.70
2012,07,11,11,50,19.80
2012,07,11,11,51,19.80
2012,07,11,11,52,19.90
2012,07,11,11,53,19.90
2012,07,11,11,54,19.90
2012,07,11,11,55,19.90
2012,07,11,11,56,19.90
2012,07,11,11,57,20.00
2012,07,11,11,58,20.00
2012,07,11,11,59,20.00
2012,07,11,12,00,20.00
2012,07,11,12,01,20.10
2012,07,11,12,02,20.10
2012,07,11,12,03,20.20
2012,07,11,12,04,20.20
2012,07,11,12,05,20.20
2012,07,11,12,06,20.30
2012,07,11,12,07,20.30
2012,07,11,12,08,20.30
2012,07,11,12,09,20.30
2012,07,11,12,10,20.30
2012,07,11,12,11,20.30
2012,07,11,12,12,20.30
2012,07,11,12,13,20.30
2012,07,11,12,14,20.40
2012,07,11,12,15,20.40
2012,07,11,12,16,20.40
2012,07,11,12,17,20.50
2012,07,11,12,18,20.50
2012,07,11,12,19,20.50
2012,07,11,12,20,20.50
2012,07,11,12,21,20.50
2012,07,11,12,22,20.40
2012,07,11,12,23,20.40
2012,07,11,12,24,20.40
2012,07,11,12,25,20.40
2012,07,11,12,26,20.40
2012,07,11,12,27,20.40
2012,07,11,12,28,20.40
2012,07,11,12,29,20.40
2012,07,11,12,30,20.50
2012,07,11,12,31,20.50
2012,07,11,12,32,20.60
2012,07,11,12,33,20.70
2012,07,11,12,34,20.80
2012,07,11,12,35,20.90
2012,07,11,12,36,21.00
2012,07,11,12,37,21.10
2012,07,11,12,38,21.10
2012,07,11,12,39,21.20
2012,07,11,12,40,21.20
2012,07,11,12,41,21.30
2012,07,11,12,42,21.30
2012,07,11,12,43,21.40
2012,07,11,12,44,21.30
2012,07,11,12,45,21.30
2012,07,11,12,46,21.40
2012,07,11,12,47,21.40
2012,07,11,12,48,21.40
2012,07,11,12,49,21.40
2012,07,11,12,50,21.30
2012,07,11,12,51,21.30
2012,07,11,12,52,21.30
2012,07,11,12,53,21.30
2012,07,11,12,54,21.30
2012,07,11,12,55,21.40
2012,07,11,12,56,21.40
2012,07,11,12,57,21.40
2012,07,11,12,58,21.40
2012,07,11,12,59,21.40
2012,07,11,13,00,21.30
2012,07,11,13,01,21.30
2012,07,11,13,02,21.30
2012,07,11,13,03,21.30
2012,07,11,13,04,21.40
2012,07,11,13,05,21.50
2012,07,11,13,06,21.50
2012,07,11,13,07,21.50
2012,07,11,13,08,21.50
2012,07,11,13,09,21.60
2012,07,11,13,10,21.60
2012,07,11,13,11,21.70
2012,07,11,13,12,21.80
2012,07,11,13,13,21.80
2012,07,11,13,14,21.80
2012,07,11,13,15,21.80
2012,07,11,13,16,21.90
2012,07,11,13,17,21.90
2012,07,11,13,18,21.90
2012,07,11,13,19,21.90
2012,07,11,13,20,21.90
2012,07,11,13,21,21.90
2012,07,11,13,22,22.00
2012,07,11,13,23,22.00
2012,07,11,13,24,22.10
2012,07,11,13,25,22.00
2012,07,11,13,26,22.00
2012,07,11,13,27,22.00
2012,07,11,13,28,22.00
2012,07,11,13,29,22.10
2012,07,11,13,30,22.20
2012,07,11,13,31,22.20
2012,07,11,13,32,22.20
2012,07,11,13,33,22.20
2012,07,11,13,34,22.10
2012,07,11,13,35,22.10
2012,07,11,13,36,22.10
2012,07,11,13,37,22.10
2012,07,11,13,38,22.10
2012,07,11,13,39,22.10
2012,07,11,13,40,22.20
2012,07,11,13,41,22.20
2012,07,11,13,42,22.10
2012,07,11,13,43,22.10
2012,07,11,13,44,22.20
2012,07,11,13,45,22.30
2012,07,11,13,46,22.30
2012,07,11,13,47,22.30
2012,07,11,13,48,22.30
2012,07,11,13,49,22.30
2012,07,11,13,50,22.40
2012,07,11,13,51,22.40
2012,07,11,13,52,22.40
2012,07,11,13,53,22.40
2012,07,11,13,54,22.40
2012,07,11,13,55,22.40
2012,07,11,13,56,22.40
2012,07,11,13,57,22.30
2012,07,11,13,58,22.30
2012,07,11,13,59,22.20
2012,07,11,14,00,22.20
2012,07,11,14,01,22.20
2012,07,11,14,02,22.20
2012,07,11,14,03,22.20
2012,07,11,14,04,22.10
2012,07,11,14,05,22.10
2012,07,11,14,06,22.20
2012,07,11,14,07,22.20
2012,07,11,14,08,22.20
2012,07,11,14,09,22.30
2012,07,11,14,10,22.30
2012,07,11,14,11,22.20
2012,07,11,14,12,22.10
2012,07,11,14,13,22.00
2012,07,11,14,14,22.00
2012,07,11,14,15,22.00
2012,07,11,14,16,21.90
2012,07,11,14,17,21.90
2012,07,11,14,18,21.90
2012,07,11,14,19,21.90
2012,07,11,14,20,21.90
2012,07,11,14,21,22.00
2012,07,11,14,22,22.10
2012,07,11,14,23,22.10
2012,07,11,14,24,22.10
2012,07,11,14,25,22.10
2012,07,11,14,26,22.10
2012,07,11,14,27,22.00
2012,07,11,14,28,22.00
2012,07,11,14,29,22.10
2012,07,11,14,30,22.10
2012,07,11,14,31,22.20
2012,07,11,14,32,22.10
2012,07,11,14,33,22.10
2012,07,11,14,34,22.20
2012,07,11,14,35,22.30
2012,07,11,14,36,22.40
2012,07,11,14,37,22.40
2012,07,11,14,38,22.40
2012,07,11,14,39,22.40
2012,07,11,14,40,22.50
2012,07,11,14,41,22.50
2012,07,11,14,42,22.50
2012,07,11,14,43,22.60
2012,07,11,14,44,22.60
2012,07,11,14,45,22.60
2012,07,11,14,46,22.50
2012,07,11,14,47,22.50
2012,07,11,14,48,22.50
2012,07,11,14,49,22.40
2012,07,11,14,50,22.50
2012,07,11,14,51,22.60
2012,07,11,14,52,22.70
2012,07,11,14,53,22.80
2012,07,11,14,54,22.80
2012,07,11,14,55,22.90
2012,07,11,14,56,23.00
2012,07,11,14,57,23.10
2012,07,11,14,58,23.00
2012,07,11,14,59,23.00
2012,07,11,15,00,22.90
2012,07,11,15,01,22.80
2012,07,11,15,02,22.80
2012,07,11,15,03,22.70
2012,07,11,15,04,22.60
2012,07,11,15,05,22.60
2012,07,11,15,06,22.60
2012,07,11,15,07,22.60
2012,07,11,15,08,22.60
2012,07,11,15,09,22.70
2012,07,11,15,10,22.70
2012,07,11,15,11,22.80
2012,07,11,15,12,22.90
2012,07,11,15,13,23.00
2012,07,11,15,14,22.90
2012,07,11,15,15,22.80
2012,07,11,15,16,22.80
2012,07,11,15,17,22.80
2012,07,11,15,18,22.90
2012,07,11,15,19,22.90
2012,07,11,15,20,23.00
2012,07,11,15,21,23.10
2012,07,11,15,22,23.10
2012,07,11,15,23,23.20
2012,07,11,15,24,23.30
2012,07,11,15,25,23.30
2012,07,11,15,26,23.40
2012,07,11,15,27,23.40
2012,07,11,15,28,23.40
2012,07,11,15,29,23.20
2012,07,11,15,30,23.20
2012,07,11,15,31,23.20
2012,07,11,15,32,23.20
2012,07,11,15,33,23.20
2012,07,11,15,34,23.30
2012,07,11,15,35,23.20
2012,07,11,15,36,23.20
2012,07,11,15,37,23.30
2012,07,11,15,38,23.40
2012,07,11,15,39,23.50
2012,07,11,15,40,23.60
2012,07,11,15,41,23.60
2012,07,11,15,42,23.60
2012,07,11,15,43,23.70
2012,07,11,15,44,23.70
2012,07,11,15,45,23.70
2012,07,11,15,46,23.80
2012,07,11,15,47,23.80
2012,07,11,15,48,23.80
2012,07,11,15,49,23.80
2012,07,11,15,50,23.80
2012,07,11,15,51,23.80
2012,07,11,15,52,23.80
2012,07,11,15,53,23.80
2012,07,11,15,54,23.70
2012,07,11,15,55,23.60
2012,07,11,15,56,23.40
2012,07,11,15,57,23.30
2012,07,11,15,58,23.20
2012,07,11,15,59,23.20
2012,07,11,16,00,23.20
2012,07,11,16,01,23.20
2012,07,11,16,02,23.30
2012,07,11,16,03,23.30
2012,07,11,16,04,23.40
2012,07,11,16,05,23.40
2012,07,11,16,06,23.40
2012,07,11,16,07,23.30
2012,07,11,16,08,23.40
2012,07,11,16,09,23.50
2012,07,11,16,10,23.60
2012,07,11,16,11,23.70
2012,07,11,16,12,23.80
2012,07,11,16,13,23.80
2012,07,11,16,14,23.80
2012,07,11,16,15,23.90
2012,07,11,16,16,23.90
2012,07,11,16,17,24.00
2012,07,11,16,18,24.00
2012,07,11,16,19,24.10
2012,07,11,16,20,24.10
2012,07,11,16,21,24.10
2012,07,11,16,22,23.90
2012,07,11,16,23,23.90
2012,07,11,16,24,23.90
2012,07,11,16,25,23.80
2012,07,11,16,26,23.70
2012,07,11,16,27,23.70
2012,07,11,16,28,23.60
2012,07,11,16,29,23.50
2012,07,11,16,30,23.40
2012,07,11,16,31,23.40
2012,07,11,16,32,23.40
2012,07,11,16,33,23.40
2012,07,11,16,34,23.30
2012,07,11,16,35,23.30
2012,07,11,16,36,23.30
2012,07,11,16,37,23.40
2012,07,11,16,38,23.40
2012,07,11,16,39,23.50
2012,07,11,16,40,23.60
2012,07,11,16,41,23.60
2012,07,11,16,42,23.70
2012,07,11,16,43,23.70
2012,07,11,16,44,23.70
2012,07,11,16,45,23.80
2012,07,11,16,46,23.80
2012,07,11,16,47,23.90
2012,07,11,16,48,23.90
2012,07,11,16,49,24.00
2012,07,11,16,50,24.10
2012,07,11,16,51,24.10
2012,07,11,16,52,24.10
2012,07,11,16,53,24.10
2012,07,11,16,54,24.10
2012,07,11,16,55,24.10
2012,07,11,16,56,24.10
2012,07,11,16,57,24.10
2012,07,11,16,58,24.10
2012,07,11,16,59,24.10
2012,07,11,17,00,24.20
2012,07,11,17,01,24.30
2012,07,11,17,02,24.30
2012,07,11,17,03,24.30
2012,07,11,17,04,24.30
2012,07,11,17,05,24.20
2012,07,11,17,06,24.20
2012,07,11,17,07,24.20
2012,07,11,17,08,24.20
2012,07,11,17,09,24.10
2012,07,11,17,10,23.90
2012,07,11,17,11,23.70
2012,07,11,17,12,23.50
2012,07,11,17,13,23.30
2012,07,11,17,14,23.20
2012,07,11,17,15,23.20
2012,07,11,17,16,23.10
2012,07,11,17,17,23.10
2012,07,11,17,18,23.10
2012,07,11,17,19,23.20